Back to catalog

ATLAS 5 CENTAUR R/B

AliveMEO
NORAD 66455·ROCKET BODY·🇺🇸 United States

Launched Nov 13, 2025 from Cape Canaveral Space Force Station

Loading…

Next Passes (next 24 hours)

TLE

FreshSource: Space-Track

Epoch: Sep 14, 2026, 11:53 UTC

1 66455U 25261B   26257.49542090 -.00000091  00000-0  00000-0 0  9998
2 66455   5.8030 263.1740 2318598 242.9156 302.5778  2.28261458  6941

Track ATLAS 5 CENTAUR R/B in real time with AllMySat

Download on the App Store